31-05-2022, 00:00:02,    232,    0.0,    7.7,   0.00,   0.00, 1008.7,   76.8, -999.0
31-05-2022, 00:00:12,    232,    0.0,    7.6,   0.00,   0.00, 1008.7,   76.7, -999.0
31-05-2022, 00:00:22,    232,    0.0,    7.7,   0.00,   0.00, 1008.7,   76.8, -999.0
31-05-2022, 00:00:32,    232,    0.0,    7.7,   0.00,   0.00, 1008.7,   76.8, -999.0
31-05-2022, 00:00:42,    231,    0.0,    7.7,   0.00,   0.00, 1008.7,   76.7, -999.0
31-05-2022, 00:00:52,    232,    0.0,    7.6,   0.00,   0.00, 1008.7,   76.8, -999.0
31-05-2022, 00:01:02,    232,    0.0,    7.7,   0.00,   0.00, 1008.7,   76.8, -999.0
31-05-2022, 00:01:12,    232,    0.0,    7.7,   0.00,   0.00, 1008.7,   76.8, -999.0
31-05-2022, 00:01:22,    232,    0.0,    7.8,   0.00,   0.00, 1008.7,   76.7, -999.0
31-05-2022, 00:01:32,    235,    0.3,    7.7,   0.00,   0.00, 1008.7,   76.9, -999.0
31-05-2022, 00:01:42,    235,    0.2,    7.7,   0.00,   0.00, 1008.7,   77.0, -999.0
31-05-2022, 00:01:52,    274,    0.1,    7.6,   0.00,   0.00, 1008.7,   76.9, -999.0
31-05-2022, 00:02:02,    285,    0.5,    7.7,   0.00,   0.00, 1008.7,   77.0, -999.0
31-05-2022, 00:02:11,    285,    0.0,    7.7,   0.00,   0.00, 1008.7,   76.9, -999.0
31-05-2022, 00:02:21,    285,    0.0,    7.6,   0.00,   0.00, 1008.7,   76.8, -999.0
31-05-2022, 00:02:32,    285,    0.0,    7.7,   0.00,   0.00, 1008.7,   76.9, -999.0
31-05-2022, 00:02:41,    279,    0.0,    7.7,   0.00,   0.00, 1008.7,   76.8, -999.0
31-05-2022, 00:02:51,    200,    0.1,    7.7,   0.00,   0.00, 1008.7,   77.0, -999.0
31-05-2022, 00:03:02,    200,    0.0,    7.7,   0.00,   0.00, 1008.7,   76.8, -999.0
31-05-2022, 00:03:11,    201,    0.0,    7.7,   0.00,   0.00, 1008.7,   76.8, -999.0
31-05-2022, 00:03:21,    200,    0.0,    7.7,   0.00,   0.00, 1008.7,   76.8, -999.0
31-05-2022, 00:03:31,    209,    0.0,    7.7,   0.00,   0.00, 1008.7,   76.8, -999.0
31-05-2022, 00:03:41,    262,    0.0,    7.7,   0.00,   0.00, 1008.7,   76.9, -999.0
31-05-2022, 00:03:51,    260,    0.0,    7.7,   0.00,   0.00, 1008.7,   76.8, -999.0
31-05-2022, 00:04:01,    260,    0.0,    7.6,   0.00,   0.00, 1008.7,   76.9, -999.0
31-05-2022, 00:04:11,    260,    0.0,    7.7,   0.00,   0.00, 1008.7,   76.9, -999.0
31-05-2022, 00:04:21,    260,    0.0,    7.7,   0.00,   0.00, 1008.7,   76.9, -999.0
31-05-2022, 00:04:31,    260,    0.0,    7.7,   0.00,   0.00, 1008.7,   76.9, -999.0
31-05-2022, 00:04:41,    260,    0.0,    7.7,   0.00,   0.00, 1008.7,   76.8, -999.0
31-05-2022, 00:04:51,    260,    0.0,    7.7,   0.00,   0.00, 1008.7,   76.9, -999.0
31-05-2022, 00:05:01,    259,    0.0,    7.7,   0.00,   0.00, 1008.7,   76.8, -999.0
31-05-2022, 00:05:11,    226,    0.0,    7.7,   0.00,   0.00, 1008.7,   77.0, -999.0
31-05-2022, 00:05:21,    226,    0.0,    7.7,   0.00,   0.00, 1008.7,   77.0, -999.0
31-05-2022, 00:05:30,    226,    0.0,    7.7,   0.00,   0.00, 1008.7,   76.9, -999.0
31-05-2022, 00:05:41,    226,    0.0,    7.6,   0.00,   0.00, 1008.7,   76.9, -999.0
31-05-2022, 00:05:50,    226,    0.0,    7.7,   0.00,   0.00, 1008.7,   76.9, -999.0
31-05-2022, 00:06:00,    226,    0.0,    7.7,   0.00,   0.00, 1008.7,   76.8, -999.0
31-05-2022, 00:06:11,    225,    0.0,    7.6,   0.00,   0.00, 1008.7,   76.8, -999.0
31-05-2022, 00:06:20,    230,    0.2,    7.7,   0.00,   0.00, 1008.7,   77.0, -999.0
31-05-2022, 00:06:30,    230,    0.1,    7.7,   0.00,   0.00, 1008.7,   77.1, -999.0
31-05-2022, 00:06:40,    233,    0.4,    7.6,   0.00,   0.00, 1008.8,   77.2, -999.0
31-05-2022, 00:06:50,    232,    0.1,    7.6,   0.00,   0.00, 1008.7,   76.9, -999.0
31-05-2022, 00:07:00,    233,    0.0,    7.7,   0.00,   0.00, 1008.7,   76.8, -999.0
31-05-2022, 00:07:10,    234,    0.0,    7.6,   0.00,   0.00, 1008.7,   76.8, -999.0
31-05-2022, 00:07:20,    233,    0.0,    7.6,   0.00,   0.00, 1008.7,   76.8, -999.0
31-05-2022, 00:07:30,    234,    0.0,    7.6,   0.00,   0.00, 1008.7,   76.9, -999.0
31-05-2022, 00:07:40,    234,    0.0,    7.6,   0.00,   0.00, 1008.7,   76.9, -999.0
31-05-2022, 00:07:50,    234,    0.0,    7.5,   0.00,   0.00, 1008.7,   76.9, -999.0
31-05-2022, 00:08:00,    234,    0.0,    7.5,   0.00,   0.00, 1008.7,   76.8, -999.0
31-05-2022, 00:08:10,    234,    0.0,    7.6,   0.00,   0.00, 1008.7,   76.9, -999.0
31-05-2022, 00:08:20,    224,    0.0,    7.5,   0.00,   0.00, 1008.7,   77.0, -999.0
31-05-2022, 00:08:30,    205,    0.0,    7.6,   0.00,   0.00, 1008.7,   76.9, -999.0
31-05-2022, 00:08:40,    205,    0.0,    7.5,   0.00,   0.00, 1008.7,   77.0, -999.0
31-05-2022, 00:08:50,    205,    0.0,    7.5,   0.00,   0.00, 1008.7,   76.9, -999.0
31-05-2022, 00:09:00,    205,    0.0,    7.6,   0.00,   0.00, 1008.7,   76.8, -999.0
31-05-2022, 00:09:09,    248,    0.0,    7.6,   0.00,   0.00, 1008.7,   76.9, -999.0
31-05-2022, 00:09:20,    230,    0.6,    7.6,   0.00,   0.00, 1008.8,   77.2, -999.0
31-05-2022, 00:09:29,    226,    0.7,    7.6,   0.00,   0.00, 1008.8,   77.4, -999.0
31-05-2022, 00:09:39,    226,    0.0,    7.6,   0.00,   0.00, 1008.7,   76.9, -999.0
31-05-2022, 00:09:49,    226,    0.0,    7.5,   0.00,   0.00, 1008.7,   76.8, -999.0
31-05-2022, 00:10:01,    226,    0.0,    7.5,   0.00,   0.00, 1008.7,   76.8, -999.0
31-05-2022, 00:10:09,    226,    0.0,    7.5,   0.00,   0.00, 1008.7,   76.8, -999.0
31-05-2022, 00:10:19,    208,    0.3,    7.6,   0.00,   0.00, 1008.8,   77.2, -999.0
31-05-2022, 00:10:29,    225,    0.9,    7.6,   0.00,   0.00, 1008.8,   77.3, -999.0
31-05-2022, 00:10:40,    213,    0.8,    7.6,   0.00,   0.00, 1008.8,   77.2, -999.0
31-05-2022, 00:10:49,    218,    0.0,    7.5,   0.00,   0.00, 1008.7,   77.0, -999.0
31-05-2022, 00:10:59,    213,    0.2,    7.5,   0.00,   0.00, 1008.8,   77.1, -999.0
31-05-2022, 00:11:09,    213,    0.3,    7.6,   0.00,   0.00, 1008.8,   77.1, -999.0
31-05-2022, 00:11:19,    213,    0.0,    7.5,   0.00,   0.00, 1008.7,   77.0, -999.0
31-05-2022, 00:11:29,    213,    0.0,    7.5,   0.00,   0.00, 1008.7,   77.0, -999.0
31-05-2022, 00:11:39,    218,    0.0,    7.5,   0.00,   0.00, 1008.7,   76.9, -999.0
31-05-2022, 00:11:49,    218,    0.0,    7.4,   0.00,   0.00, 1008.7,   76.9, -999.0
31-05-2022, 00:11:59,    218,    0.0,    7.5,   0.00,   0.00, 1008.7,   76.9, -999.0
31-05-2022, 00:12:08,    218,    0.0,    7.5,   0.00,   0.00, 1008.7,   77.0, -999.0
31-05-2022, 00:12:18,    218,    0.0,    7.5,   0.00,   0.00, 1008.7,   77.0, -999.0
31-05-2022, 00:12:29,    219,    0.0,    7.5,   0.00,   0.00, 1008.7,   76.9, -999.0
31-05-2022, 00:12:38,    246,    0.1,    7.5,   0.00,   0.00, 1008.7,   77.0, -999.0
31-05-2022, 00:12:48,    246,    0.0,    7.5,   0.00,   0.00, 1008.7,   77.1, -999.0
31-05-2022, 00:12:59,    218,    0.0,    7.5,   0.00,   0.00, 1008.7,   77.1, -999.0
31-05-2022, 00:13:08,    218,    0.0,    7.5,   0.00,   0.00, 1008.7,   77.0, -999.0
31-05-2022, 00:13:18,    249,    0.5,    7.6,   0.00,   0.00, 1008.8,   77.4, -999.0
31-05-2022, 00:13:28,    242,    0.9,    7.6,   0.00,   0.00, 1008.8,   77.3, -999.0
31-05-2022, 00:13:38,    242,    0.2,    7.5,   0.00,   0.00, 1008.7,   77.0, -999.0
31-05-2022, 00:13:48,    230,    0.1,    7.6,   0.00,   0.00, 1008.7,   77.0, -999.0
31-05-2022, 00:13:58,    230,    0.2,    7.6,   0.00,   0.00, 1008.7,   77.1, -999.0
31-05-2022, 00:14:08,    231,    0.9,    7.6,   0.00,   0.00, 1008.8,   77.3, -999.0
31-05-2022, 00:14:18,    206,    1.9,    7.6,   0.00,   0.00, 1008.8,   77.1, -999.0
31-05-2022, 00:14:28,    209,    0.7,    7.5,   0.00,   0.00, 1008.8,   77.1, -999.0
31-05-2022, 00:14:38,    209,    0.0,    7.5,   0.00,   0.00, 1008.7,   76.7, -999.0
31-05-2022, 00:14:48,    209,    0.0,    7.5,   0.00,   0.00, 1008.7,   76.6, -999.0
31-05-2022, 00:14:58,    207,    0.4,    7.5,   0.00,   0.00, 1008.8,   77.1, -999.0
31-05-2022, 00:15:08,    208,    0.1,    7.5,   0.00,   0.00, 1008.7,   76.9, -999.0
31-05-2022, 00:15:18,    209,    0.0,    7.4,   0.00,   0.00, 1008.7,   76.7, -999.0
31-05-2022, 00:15:28,    209,    0.0,    7.4,   0.00,   0.00, 1008.7,   76.8, -999.0
31-05-2022, 00:15:38,    227,    0.1,    7.5,   0.00,   0.00, 1008.7,   77.1, -999.0
31-05-2022, 00:15:47,    223,    2.2,    7.6,   0.00,   0.00, 1008.8,   77.4, -999.0
31-05-2022, 00:15:57,    242,    2.7,    7.5,   0.00,   0.00, 1008.8,   77.2, -999.0
31-05-2022, 00:16:08,    217,    1.6,    7.5,   0.00,   0.00, 1008.8,   77.0, -999.0
31-05-2022, 00:16:17,    217,    0.4,    7.5,   0.00,   0.00, 1008.8,   76.9, -999.0
31-05-2022, 00:16:28,    217,    0.0,    7.4,   0.00,   0.00, 1008.7,   76.7, -999.0
31-05-2022, 00:16:37,    217,    0.0,    7.5,   0.00,   0.00, 1008.7,   76.7, -999.0
31-05-2022, 00:16:47,    217,    0.0,    7.3,   0.00,   0.00, 1008.6,   76.7, -999.0
31-05-2022, 00:16:57,    216,    0.0,    7.5,   0.00,   0.00, 1008.6,   76.7, -999.0
31-05-2022, 00:17:07,    217,    0.0,    7.4,   0.00,   0.00, 1008.7,   76.7, -999.0
31-05-2022, 00:17:17,    217,    0.0,    7.4,   0.00,   0.00, 1008.6,   76.8, -999.0
31-05-2022, 00:17:27,    217,    0.0,    7.3,   0.00,   0.00, 1008.6,   76.7, -999.0
31-05-2022, 00:17:37,    243,    0.0,    7.4,   0.00,   0.00, 1008.7,   77.0, -999.0
31-05-2022, 00:17:47,    238,    0.0,    7.5,   0.00,   0.00, 1008.6,   76.9, -999.0
31-05-2022, 00:17:57,    239,    0.0,    7.4,   0.00,   0.00, 1008.7,   77.0, -999.0
31-05-2022, 00:18:07,    241,    0.2,    7.5,   0.00,   0.00, 1008.7,   77.2, -999.0
31-05-2022, 00:18:17,    244,    0.0,    7.4,   0.00,   0.00, 1008.7,   77.1, -999.0
31-05-2022, 00:18:27,    245,    0.4,    7.5,   0.00,   0.00, 1008.7,   77.2, -999.0
31-05-2022, 00:18:37,    245,    0.0,    7.4,   0.00,   0.00, 1008.7,   76.8, -999.0
31-05-2022, 00:18:47,    246,    0.0,    7.4,   0.00,   0.00, 1008.7,   76.9, -999.0
31-05-2022, 00:18:57,    245,    0.2,    7.4,   0.00,   0.00, 1008.7,   77.1, -999.0
31-05-2022, 00:19:06,    245,    0.0,    7.4,   0.00,   0.00, 1008.6,   76.9, -999.0
31-05-2022, 00:19:17,    219,    0.0,    7.5,   0.00,   0.00, 1008.7,   77.1, -999.0
31-05-2022, 00:19:26,    218,    0.0,    7.4,   0.00,   0.00, 1008.7,   77.0, -999.0
31-05-2022, 00:19:36,    218,    0.0,    7.4,   0.00,   0.00, 1008.7,   76.9, -999.0
31-05-2022, 00:19:46,    218,    0.0,    7.4,   0.00,   0.00, 1008.7,   77.0, -999.0
31-05-2022, 00:19:56,    218,    0.5,    7.5,   0.00,   0.00, 1008.7,   77.3, -999.0
31-05-2022, 00:20:06,    218,    0.0,    7.4,   0.00,   0.00, 1008.7,   76.9, -999.0
31-05-2022, 00:20:16,    218,    0.0,    7.4,   0.00,   0.00, 1008.6,   76.9, -999.0
31-05-2022, 00:20:26,    217,    0.0,    7.4,   0.00,   0.00, 1008.7,   76.9, -999.0
31-05-2022, 00:20:36,    218,    0.0,    7.3,   0.00,   0.00, 1008.7,   76.9, -999.0
31-05-2022, 00:20:46,    218,    0.0,    7.4,   0.00,   0.00, 1008.6,   76.9, -999.0
31-05-2022, 00:20:56,    218,    0.0,    7.4,   0.00,   0.00, 1008.7,   76.9, -999.0
31-05-2022, 00:21:06,    218,    0.0,    7.3,   0.00,   0.00, 1008.7,   76.9, -999.0
31-05-2022, 00:21:16,    218,    0.0,    7.3,   0.00,   0.00, 1008.7,   76.8, -999.0
31-05-2022, 00:21:26,    218,    0.0,    7.3,   0.00,   0.00, 1008.6,   76.9, -999.0
31-05-2022, 00:21:36,    218,    0.0,    7.4,   0.00,   0.00, 1008.7,   76.9, -999.0
31-05-2022, 00:21:46,    218,    0.0,    7.4,   0.00,   0.00, 1008.7,   76.9, -999.0
31-05-2022, 00:21:56,    218,    0.0,    7.4,   0.00,   0.00, 1008.7,   76.9, -999.0
31-05-2022, 00:22:06,    217,    0.0,    7.4,   0.00,   0.00, 1008.7,   76.9, -999.0
31-05-2022, 00:22:15,    218,    0.0,    7.3,   0.00,   0.00, 1008.7,   77.0, -999.0
31-05-2022, 00:22:26,    218,    0.1,    7.4,   0.00,   0.00, 1008.7,   77.0, -999.0
31-05-2022, 00:22:36,    218,    0.1,    7.4,   0.00,   0.00, 1008.7,   77.3, -999.0
31-05-2022, 00:22:45,    219,    0.0,    7.4,   0.00,   0.00, 1008.7,   77.1, -999.0
31-05-2022, 00:22:56,    220,    0.0,    7.4,   0.00,   0.00, 1008.7,   77.1, -999.0
31-05-2022, 00:23:05,    228,    0.3,    7.4,   0.00,   0.00, 1008.8,   77.3, -999.0
31-05-2022, 00:23:15,    203,    0.3,    7.4,   0.00,   0.00, 1008.7,   77.2, -999.0
31-05-2022, 00:23:25,    231,    0.3,    7.4,   0.00,   0.00, 1008.7,   77.2, -999.0
31-05-2022, 00:23:35,    235,    0.0,    7.4,   0.00,   0.00, 1008.7,   77.1, -999.0
31-05-2022, 00:23:45,    234,    0.0,    7.3,   0.00,   0.00, 1008.7,   76.9, -999.0
31-05-2022, 00:23:55,    234,    0.0,    7.4,   0.00,   0.00, 1008.7,   76.9, -999.0
31-05-2022, 00:24:05,    235,    0.0,    7.3,   0.00,   0.00, 1008.7,   76.9, -999.0
31-05-2022, 00:24:15,    235,    0.0,    7.3,   0.00,   0.00, 1008.7,   77.0, -999.0
31-05-2022, 00:24:25,    235,    0.0,    7.4,   0.00,   0.00, 1008.7,   77.0, -999.0
31-05-2022, 00:24:35,    219,    0.0,    7.3,   0.00,   0.00, 1008.7,   76.9, -999.0
31-05-2022, 00:24:45,    226,    1.5,    7.4,   0.00,   0.00, 1008.7,   77.2, -999.0
31-05-2022, 00:24:55,    235,    0.5,    7.4,   0.00,   0.00, 1008.7,   77.2, -999.0
31-05-2022, 00:25:05,    234,    0.0,    7.3,   0.00,   0.00, 1008.7,   77.0, -999.0
31-05-2022, 00:25:15,    211,    0.1,    7.3,   0.00,   0.00, 1008.7,   77.0, -999.0
31-05-2022, 00:25:25,    211,    0.2,    7.4,   0.00,   0.00, 1008.7,   77.1, -999.0
31-05-2022, 00:25:35,    211,    0.0,    7.3,   0.00,   0.00, 1008.7,   76.8, -999.0
31-05-2022, 00:25:45,    211,    0.0,    7.3,   0.00,   0.00, 1008.6,   76.9, -999.0
31-05-2022, 00:25:54,    211,    0.0,    7.2,   0.00,   0.00, 1008.6,   76.9, -999.0
31-05-2022, 00:26:05,    211,    0.0,    7.3,   0.00,   0.00, 1008.6,   76.9, -999.0
31-05-2022, 00:26:14,    211,    0.0,    7.4,   0.00,   0.00, 1008.6,   76.9, -999.0
31-05-2022, 00:26:24,    211,    0.0,    7.3,   0.00,   0.00, 1008.6,   76.9, -999.0
31-05-2022, 00:26:34,    211,    0.0,    7.3,   0.00,   0.00, 1008.6,   76.9, -999.0
31-05-2022, 00:26:44,    211,    0.0,    7.4,   0.00,   0.00, 1008.6,   77.0, -999.0
31-05-2022, 00:26:54,    211,    0.0,    7.3,   0.00,   0.00, 1008.6,   76.9, -999.0
31-05-2022, 00:27:04,    212,    0.0,    7.3,   0.00,   0.00, 1008.6,   76.9, -999.0
31-05-2022, 00:27:14,    230,    0.3,    7.4,   0.00,   0.00, 1008.7,   77.2, -999.0
31-05-2022, 00:27:24,    234,    0.0,    7.3,   0.00,   0.00, 1008.6,   77.0, -999.0
31-05-2022, 00:27:34,    234,    0.0,    7.3,   0.00,   0.00, 1008.6,   77.0, -999.0
31-05-2022, 00:27:44,    234,    0.0,    7.3,   0.00,   0.00, 1008.6,   76.9, -999.0
31-05-2022, 00:27:54,    234,    0.0,    7.3,   0.00,   0.00, 1008.6,   76.9, -999.0
31-05-2022, 00:28:04,    230,    0.0,    7.3,   0.00,   0.00, 1008.6,   76.9, -999.0
31-05-2022, 00:28:14,    230,    0.0,    7.4,   0.00,   0.00, 1008.6,   76.9, -999.0
31-05-2022, 00:28:24,    230,    0.0,    7.4,   0.00,   0.00, 1008.6,   76.9, -999.0
31-05-2022, 00:28:34,    230,    0.0,    7.4,   0.00,   0.00, 1008.6,   77.0, -999.0
31-05-2022, 00:28:44,    230,    0.0,    7.4,   0.00,   0.00, 1008.6,   77.0, -999.0
31-05-2022, 00:28:54,    230,    0.0,    7.3,   0.00,   0.00, 1008.6,   77.0, -999.0
31-05-2022, 00:29:03,    230,    0.0,    7.3,   0.00,   0.00, 1008.6,   76.9, -999.0
31-05-2022, 00:29:14,    230,    0.0,    7.4,   0.00,   0.00, 1008.6,   77.0, -999.0
31-05-2022, 00:29:24,    230,    0.0,    7.3,   0.00,   0.00, 1008.6,   77.0, -999.0
31-05-2022, 00:29:33,    230,    0.0,    7.3,   0.00,   0.00, 1008.6,   76.9, -999.0
31-05-2022, 00:29:43,    230,    0.0,    7.4,   0.00,   0.00, 1008.6,   76.9, -999.0
31-05-2022, 00:29:53,    211,    0.0,    7.3,   0.00,   0.00, 1008.6,   76.9, -999.0
31-05-2022, 00:30:03,    210,    1.3,    7.4,   0.00,   0.00, 1008.7,   77.3, -999.0
31-05-2022, 00:30:13,    208,    0.7,    7.5,   0.00,   0.00, 1008.7,   77.2, -999.0
31-05-2022, 00:30:23,    208,    0.4,    7.3,   0.00,   0.00, 1008.6,   77.0, -999.0
31-05-2022, 00:30:33,    208,    0.0,    7.3,   0.00,   0.00, 1008.6,   76.8, -999.0
31-05-2022, 00:30:43,    208,    0.0,    7.5,   0.00,   0.00, 1008.6,   77.0, -999.0
31-05-2022, 00:30:53,    208,    0.0,    7.4,   0.00,   0.00, 1008.6,   76.9, -999.0
31-05-2022, 00:31:03,    208,    0.0,    7.4,   0.00,   0.00, 1008.6,   77.0, -999.0
31-05-2022, 00:31:13,    209,    0.0,    7.3,   0.00,   0.00, 1008.6,   77.0, -999.0
31-05-2022, 00:31:23,    209,    0.8,    7.5,   0.00,   0.00, 1008.7,   77.1, -999.0
31-05-2022, 00:31:33,    209,    0.3,    7.4,   0.00,   0.00, 1008.7,   77.1, -999.0
31-05-2022, 00:31:43,    209,    0.0,    7.4,   0.00,   0.00, 1008.6,   76.7, -999.0
31-05-2022, 00:31:53,    209,    0.0,    7.3,   0.00,   0.00, 1008.6,   76.8, -999.0
31-05-2022, 00:32:03,    209,    0.0,    7.3,   0.00,   0.00, 1008.6,   76.8, -999.0
31-05-2022, 00:32:12,    210,    0.0,    7.3,   0.00,   0.00, 1008.6,   76.9, -999.0
31-05-2022, 00:32:23,    245,    1.2,    7.4,   0.00,   0.00, 1008.7,   77.1, -999.0
31-05-2022, 00:32:33,    235,    0.1,    7.3,   0.00,   0.00, 1008.6,   76.8, -999.0
31-05-2022, 00:32:42,    235,    0.0,    7.3,   0.00,   0.00, 1008.6,   76.8, -999.0
31-05-2022, 00:32:53,    235,    0.0,    7.3,   0.00,   0.00, 1008.6,   76.8, -999.0
31-05-2022, 00:33:02,    235,    0.0,    7.4,   0.00,   0.00, 1008.6,   76.9, -999.0
31-05-2022, 00:33:12,    235,    0.0,    7.3,   0.00,   0.00, 1008.6,   76.9, -999.0
31-05-2022, 00:33:22,    235,    0.0,    7.4,   0.00,   0.00, 1008.6,   76.9, -999.0
31-05-2022, 00:33:32,    232,    0.0,    7.4,   0.00,   0.00, 1008.6,   76.9, -999.0
31-05-2022, 00:33:42,    231,    0.5,    7.4,   0.00,   0.00, 1008.6,   77.2, -999.0
31-05-2022, 00:33:52,    232,    0.0,    7.4,   0.00,   0.00, 1008.6,   76.9, -999.0
31-05-2022, 00:34:02,    253,    0.4,    7.4,   0.00,   0.00, 1008.6,   77.1, -999.0
31-05-2022, 00:34:12,    233,    2.1,    7.5,   0.00,   0.00, 1008.7,   77.2, -999.0
31-05-2022, 00:34:22,    229,    0.5,    7.4,   0.00,   0.00, 1008.6,   76.8, -999.0
31-05-2022, 00:34:32,    212,    0.0,    7.4,   0.00,   0.00, 1008.6,   76.9, -999.0
31-05-2022, 00:34:42,    212,    0.0,    7.4,   0.00,   0.00, 1008.6,   77.0, -999.0
31-05-2022, 00:34:52,    242,    0.4,    7.3,   0.00,   0.00, 1008.6,   77.0, -999.0
31-05-2022, 00:35:02,    231,    1.6,    7.3,   0.00,   0.00, 1008.7,   77.1, -999.0
31-05-2022, 00:35:12,    231,    0.2,    7.4,   0.00,   0.00, 1008.6,   77.0, -999.0
31-05-2022, 00:35:22,    233,    0.0,    7.3,   0.00,   0.00, 1008.6,   76.8, -999.0
31-05-2022, 00:35:32,    233,    0.0,    7.3,   0.00,   0.00, 1008.6,   76.7, -999.0
31-05-2022, 00:35:42,    215,    0.0,    7.3,   0.00,   0.00, 1008.5,   76.6, -999.0
31-05-2022, 00:35:51,    214,    0.0,    7.3,   0.00,   0.00, 1008.6,   76.7, -999.0
31-05-2022, 00:36:02,    214,    0.0,    7.3,   0.00,   0.00, 1008.6,   76.6, -999.0
31-05-2022, 00:36:12,    211,    0.0,    7.3,   0.00,   0.00, 1008.6,   76.6, -999.0
31-05-2022, 00:36:21,    211,    0.0,    7.3,   0.00,   0.00, 1008.5,   76.5, -999.0
31-05-2022, 00:36:31,    211,    0.0,    7.4,   0.00,   0.00, 1008.6,   76.6, -999.0
31-05-2022, 00:36:41,    211,    0.0,    7.3,   0.00,   0.00, 1008.6,   76.6, -999.0
31-05-2022, 00:36:51,    211,    0.0,    7.3,   0.00,   0.00, 1008.5,   76.6, -999.0
31-05-2022, 00:37:01,    211,    0.0,    7.4,   0.00,   0.00, 1008.5,   76.5, -999.0
31-05-2022, 00:37:11,    211,    0.0,    7.3,   0.00,   0.00, 1008.6,   76.5, -999.0
31-05-2022, 00:37:21,    211,    0.0,    7.3,   0.00,   0.00, 1008.5,   76.5, -999.0
31-05-2022, 00:37:31,    211,    0.0,    7.3,   0.00,   0.00, 1008.6,   76.5, -999.0
31-05-2022, 00:37:41,    211,    0.0,    7.4,   0.00,   0.00, 1008.6,   76.4, -999.0
31-05-2022, 00:37:51,    211,    0.0,    7.4,   0.00,   0.00, 1008.5,   76.6, -999.0
31-05-2022, 00:38:01,    211,    0.0,    7.4,   0.00,   0.00, 1008.6,   76.5, -999.0
31-05-2022, 00:38:11,    211,    0.0,    7.4,   0.00,   0.00, 1008.5,   76.5, -999.0
31-05-2022, 00:38:21,    211,    0.0,    7.3,   0.00,   0.00, 1008.6,   76.7, -999.0
31-05-2022, 00:38:31,    216,    0.7,    7.4,   0.00,   0.00, 1008.6,   76.7, -999.0
31-05-2022, 00:38:41,    234,    1.2,    7.5,   0.00,   0.00, 1008.7,   76.9, -999.0
31-05-2022, 00:38:51,    235,    1.8,    7.5,   0.00,   0.00, 1008.7,   76.8, -999.0
31-05-2022, 00:39:00,    239,    0.6,    7.4,   0.00,   0.00, 1008.7,   76.8, -999.0
31-05-2022, 00:39:11,    255,    0.9,    7.4,   0.00,   0.00, 1008.7,   76.7, -999.0
31-05-2022, 00:39:21,    252,    0.6,    7.4,   0.00,   0.00, 1008.6,   76.6, -999.0
31-05-2022, 00:39:30,    254,    1.0,    7.3,   0.00,   0.00, 1008.7,   76.6, -999.0
31-05-2022, 00:39:41,    231,    0.0,    7.3,   0.00,   0.00, 1008.6,   76.3, -999.0
31-05-2022, 00:39:51,    231,    0.0,    7.4,   0.00,   0.00, 1008.6,   76.3, -999.0
31-05-2022, 00:40:00,    231,    0.0,    7.3,   0.00,   0.00, 1008.6,   76.3, -999.0
31-05-2022, 00:40:10,    230,    0.0,    7.3,   0.00,   0.00, 1008.6,   76.4, -999.0
31-05-2022, 00:40:20,    231,    0.0,    7.3,   0.00,   0.00, 1008.6,   76.4, -999.0
31-05-2022, 00:40:30,    231,    0.0,    7.3,   0.00,   0.00, 1008.6,   76.5, -999.0
31-05-2022, 00:40:40,    232,    0.0,    7.3,   0.00,   0.00, 1008.6,   76.4, -999.0
31-05-2022, 00:40:50,    231,    0.0,    7.3,   0.00,   0.00, 1008.6,   76.4, -999.0
31-05-2022, 00:41:00,    231,    0.0,    7.3,   0.00,   0.00, 1008.6,   76.5, -999.0
31-05-2022, 00:41:10,    231,    0.0,    7.3,   0.00,   0.00, 1008.6,   76.4, -999.0
31-05-2022, 00:41:20,    231,    0.0,    7.3,   0.00,   0.00, 1008.5,   76.4, -999.0
31-05-2022, 00:41:30,    232,    0.0,    7.3,   0.00,   0.00, 1008.6,   76.5, -999.0
31-05-2022, 00:41:40,    239,    0.3,    7.3,   0.00,   0.00, 1008.6,   76.6, -999.0
31-05-2022, 00:41:50,    239,    0.3,    7.4,   0.00,   0.00, 1008.6,   76.5, -999.0
31-05-2022, 00:42:00,    243,    0.7,    7.4,   0.00,   0.00, 1008.6,   76.6, -999.0
31-05-2022, 00:42:09,    243,    0.0,    7.3,   0.00,   0.00, 1008.6,   76.5, -999.0
31-05-2022, 00:42:20,    243,    0.0,    7.4,   0.00,   0.00, 1008.6,   76.4, -999.0
31-05-2022, 00:42:30,    243,    0.0,    7.3,   0.00,   0.00, 1008.5,   76.3, -999.0
31-05-2022, 00:42:39,    243,    0.0,    7.3,   0.00,   0.00, 1008.6,   76.5, -999.0
31-05-2022, 00:42:50,    248,    0.6,    7.4,   0.00,   0.00, 1008.7,   76.9, -999.0
31-05-2022, 00:43:00,    248,    0.4,    7.4,   0.00,   0.00, 1008.7,   76.9, -999.0
31-05-2022, 00:43:09,    239,    1.4,    7.5,   0.00,   0.00, 1008.7,   76.7, -999.0
31-05-2022, 00:43:19,    232,    0.8,    7.4,   0.00,   0.00, 1008.6,   76.7, -999.0
31-05-2022, 00:43:30,    233,    0.3,    7.3,   0.00,   0.00, 1008.6,   76.5, -999.0
31-05-2022, 00:43:39,    239,    1.2,    7.4,   0.00,   0.00, 1008.7,   76.6, -999.0
31-05-2022, 00:43:49,    235,    0.0,    7.3,   0.00,   0.00, 1008.6,   76.3, -999.0
31-05-2022, 00:43:59,    236,    0.2,    7.4,   0.00,   0.00, 1008.6,   76.6, -999.0
31-05-2022, 00:44:09,    237,    0.0,    7.4,   0.00,   0.00, 1008.5,   76.2, -999.0
31-05-2022, 00:44:19,    221,    0.3,    7.4,   0.00,   0.00, 1008.6,   76.5, -999.0
31-05-2022, 00:44:29,    229,    1.9,    7.5,   0.00,   0.00, 1008.7,   76.6, -999.0
31-05-2022, 00:44:39,    231,    1.6,    7.4,   0.00,   0.00, 1008.7,   76.5, -999.0
31-05-2022, 00:44:49,    231,    0.3,    7.4,   0.00,   0.00, 1008.6,   76.3, -999.0
31-05-2022, 00:44:59,    230,    0.0,    7.4,   0.00,   0.00, 1008.5,   76.1, -999.0
31-05-2022, 00:45:09,    231,    0.1,    7.5,   0.00,   0.00, 1008.6,   76.3, -999.0
31-05-2022, 00:45:19,    231,    0.0,    7.4,   0.00,   0.00, 1008.5,   76.1, -999.0
31-05-2022, 00:45:29,    231,    0.1,    7.4,   0.00,   0.00, 1008.6,   76.1, -999.0
31-05-2022, 00:45:39,    231,    0.0,    7.4,   0.00,   0.00, 1008.5,   76.1, -999.0
31-05-2022, 00:45:48,    231,    0.0,    7.4,   0.00,   0.00, 1008.5,   76.0, -999.0
31-05-2022, 00:45:59,    206,    0.0,    7.4,   0.00,   0.00, 1008.5,   76.2, -999.0
31-05-2022, 00:46:09,    206,    0.0,    7.4,   0.00,   0.00, 1008.6,   76.2, -999.0
31-05-2022, 00:46:18,    206,    0.2,    7.4,   0.00,   0.00, 1008.6,   76.3, -999.0
31-05-2022, 00:46:28,    206,    1.0,    7.5,   0.00,   0.00, 1008.6,   76.5, -999.0
31-05-2022, 00:46:39,    206,    0.0,    7.4,   0.00,   0.00, 1008.5,   76.1, -999.0